Bookmark and Share
Track history (hours):
 

Wilson Gaeta

Last reported at 2014-Apr-21 02:32 UTC. Time now 2014-Apr-21 03:09 UTC.
Position N 57°35' E 011°41'.

Length 88 m; draft 5.6 m.

Type: Cargo ship. MMSI: 314237000.

NotesDate/timePositionNaut miles runAvg speedWind from/ knotsBaromVisibWave heightAir tempDewpointWater temp
2014-Apr-21 02:32N 57°35' E 011°41'0 0.0
2014-Apr-21 01:32N 57°35' E 011°41'0 0.0
2014-Apr-21 00:32N 57°35' E 011°41'6 6.2
2014-Apr-20 23:33N 57°37' E 011°30'10 9.7
2014-Apr-20 22:33N 57°41' E 011°13'10 9.6
2014-Apr-20 21:33N 57°45' E 010°57'9 8.7
2014-Apr-20 20:33N 57°47' E 010°41'9 8.7
2014-Apr-20 19:33N 57°48' E 010°25'9 9.1
2014-Apr-20 18:33N 57°48' E 010°08'117 8.8
2014-Apr-20 05:18N 58°00' E 006°30'7 9.1
2014-Apr-20 04:33N 58°05' E 006°20'9 9.0
2014-Apr-20 03:33N 58°11' E 006°08'9 8.6
2014-Apr-20 02:33N 58°17' E 005°57'9 8.8
2014-Apr-20 01:33N 58°24' E 005°45'9 8.6
2014-Apr-20 00:33N 58°30' E 005°34'9 8.3
2014-Apr-19 23:27N 58°38' E 005°25'8 8.9
2014-Apr-19 22:33N 58°45' E 005°17'9 9.4
2014-Apr-19 21:34N 58°53' E 005°07'10 9.4
2014-Apr-19 20:33N 59°01' E 004°58'9 9.5
2014-Apr-19 19:33N 59°09' E 004°49'  
2014-Apr-14 11:33N 59°18' E 005°20'8 8.4
2014-Apr-14 10:33N 59°10' E 005°21'8 8.2
2014-Apr-14 09:34N 59°02' E 005°20'7 6.7
2014-Apr-14 08:34N 58°55' E 005°18'6 6.2
2014-Apr-14 07:33N 58°49' E 005°16'6 6.1
2014-Apr-14 06:33N 58°43' E 005°14'126 8.2
2014-Apr-13 15:15N 56°37' E 005°14'7 7.9
2014-Apr-13 14:21N 56°30' E 005°15'7 7.9
2014-Apr-13 13:24N 56°23' E 005°15'10 8.0
2014-Apr-13 12:10N 56°13' E 005°16'49 8.5
2014-Apr-13 06:24N 55°24' E 005°16'22110.1
2014-Apr-12 08:26N 51°59' E 002°55'47 9.4
2014-Apr-12 03:27N 51°21' E 002°09'1010.4
2014-Apr-12 02:32N 51°13' E 002°02'1010.6
2014-Apr-12 01:32N 51°08' E 001°48'1111.1
2014-Apr-12 00:33N 50°59' E 001°36'2311.7
2014-Apr-11 22:33N 50°39' E 001°17'1111.1
2014-Apr-11 21:33N 50°32' E 001°04'1310.9
2014-Apr-11 20:22N 50°27' E 000°45'911.5
2014-Apr-11 19:33N 50°25' E 000°31'1212.0
2014-Apr-11 18:33N 50°22' E 000°12'5511.0
2014-Apr-11 13:33N 50°08' W 001°10'  

Dump ship's entire track history

sailing weather and tide predictions

Wilson Gaeta — 8PTS — position and weather